CAPE
20 14 9 10 148 379 518 527 502 526 292 221 69 2 329 927 6 3 1218 1344 595 1598 1288 954 1029 1222 1114 1102 1264 1051 1054 1131 1138 1108 1094 1021 1057 1122 1147 1216 1207 1165 1142 1123 1124 1120 1088 1233 1312 1462 1506 1730 1782 1907 1639 1566 1566 1829 2012 1955 1947 1967 2099 2027 2057 2182 2450 2724 2885 2981 2501 2329 2225 1705 1579 1340 1156 1246 1302 1288 914 634 715 1061 1781 2001 2071
10 12 12 2 19 160 436 568 563 498 605 670 721 661 848 1054 1501 638 824 1866 1704 1446 1271 1001 1015 1019 1085 1158 1136 1124 1110 1161 1160 1027 1055 1082 1022 1146 1106 1136 1156 1155 1121 1111 1169 1211 1209 1164 1186 1561 1562 1376 1674 1696 1745 1827 1955 2113 2091 2036 1957 1701 1782 1984 2427 2545 2740 2608 2722 3228 3296 3262 3462 2987 2150 1972 1623 1776 2020 1846 1410 1012 939 973 1243 1656 1734
10 10 13 16 3 0 17 362 558 612 599 596 642 752 806 1066 1442 1365 1742 1874 1596 1192 1125 996 850 946 1040 1053 1090 1029 1051 1072 1093 1014 964 957 967 1045 1044 1045 1054 1010 970 949 924 937 978 978 1312 1879 1960 1555 1274 1015 1100 1276 1430 1731 1710 2129 2516 2320 2304 2453 2258 2507 2803 2756 2966 3537 3976 4168 3766 3648 3197 2575 2099 2207 2338 2406 2173 1799 1732 1549 1345 1432 1556
37 13 2 8 5 2 37 155 421 526 637 820 691 976 857 1449 1694 1765 1742 1530 1334 1056 888 944 886 997 999 966 970 889 844 863 816 874 769 804 898 865 872 849 815 786 733 742 715 662 623 612 901 1030 1161 1117 1132 1208 1284 1366 1286 1514 1748 1938 1314 1759 1735 2009 2132 2360 2314 2534 2712 2894 2838 3250 3729 4119 3489 2919 2621 2566 2469 2384 2897 2457 2225 2041 1931 1628 1513
201 198 4 5 0 0 18 116 191 398 410 728 875 893 948 1046 1077 1802 1398 1572 1267 1129 906 809 1081 1013 844 895 855 801 751 906 636 573 561 562 528 530 587 670 618 618 529 567 614 658 599 700 750 946 1057 1120 1104 1068 1076 1023 1175 1263 1278 1635 1684 1793 1969 1856 2586 1855 1309 1527 2252 2326 2420 2439 2338 2463 2674 2829 2850 2502 2312 2368 2681 2678 2509 2207 2226 2088 1744
164 4 11 6 10 15 2 16 27 183 155 378 762 830 912 916 973 1141 1009 1162 1099 1067 1027 1075 1133 889 1080 929 788 684 588 498 414 443 565 627 596 365 308 374 556 613 647 647 656 686 735 748 764 652 711 733 805 799 742 793 780 879 900 935 878 805 874 1200 1700 1721 1300 1353 1483 1496 1423 1304 1404 1512 1485 1868 2297 2268 2317 2430 2560 2661 2511 2594 1981 2272 1818
88 35 24 14 18 66 66 5 0 20 192 239 926 898 930 1020 1000 1061 828 787 923 1014 1181 993 926 813 871 814 763 607 495 632 675 621 604 522 375 328 276 392 527 582 634 643 796 799 824 772 624 567 644 644 620 682 713 682 634 661 643 626 639 611 730 702 793 912 1598 1580 1258 1276 1226 1227 1168 1060 1199 1600 1783 1856 2225 2635 2730 2941 2892 2295 2510 2552 1910
183 45 18 12 3 48 8 24 0 3 62 65 682 546 860 930 884 876 1017 788 948 1107 960 855 830 817 809 691 637 577 455 441 440 618 465 420 531 570 624 658 718 722 669 593 491 566 578 490 369 462 521 538 560 536 499 470 453 487 538 561 585 599 570 563 609 619 754 917 1162 957 1042 1117 1064 1043 1256 1427 1664 1671 1622 2132 2426 2437 2567 2179 2124 2374 2235
167 116 42 4 136 71 148 55 0 0 16 36 122 398 548 934 914 948 827 925 1122 996 904 855 785 748 785 712 579 526 495 401 271 305 388 525 610 651 656 703 742 567 388 310 294 252 264 290 335 308 452 438 443 479 473 428 406 376 432 464 496 445 413 444 495 513 625 727 843 895 883 853 910 1098 1207 876 946 1178 1278 1367 1347 1458 1837 1586 2005 2395 2433
155 197 132 16 4 7 39 0 0 0 0 16 18 428 555 814 894 1023 1014 1064 878 823 690 627 761 736 675 560 585 479 499 406 277 158 278 377 403 548 627 571 536 316 293 252 254 205 207 219 229 264 278 368 383 399 419 389 345 322 273 354 405 134 115 414 293 453 599 619 626 697 731 686 631 682 1070 770 858 952 876 1297 1749 1825 1534 1279 1661 1804 2087
40 114 27 10 2 62 2 0 0 0 0 4 12 332 120 425 941 1235 1248 833 848 780 782 781 704 682 597 585 554 419 402 358 222 100 144 200 220 270 235 239 240 267 241 216 189 158 144 154 183 188 193 219 253 332 344 310 293 308 340 301 270 308 119 175 157 186 454 491 507 560 648 635 606 653 596 669 770 722 780 1009 1265 1276 1225 1404 1124 1095 1365
59 0 0 2 3 301 54 3 14 0 0 0 0 4 50 75 1098 1154 1338 956 733 264 520 541 527 503 529 467 405 365 376 355 154 154 121 118 91 113 202 210 222 177 157 140 19 5 51 0 0 0 135 166 193 212 201 230 229 254 299 328 265 210 197 98 0 0 128 319 293 334 357 440 341 284 391 487 626 564 549 696 874 1246 1172 1130 975 767 708
13 0 2 52 111 14 0 50 39 28 0 64 9 23 0 0 727 1128 1018 833 559 338 294 166 218 226 298 142 234 149 125 89 38 2 12 0 37 115 101 70 52 63 63 6 0 39 12 100 0 60 115 124 186 253 273 249 214 195 177 195 179 176 183 160 189 203 0 54 186 191 180 108 204 191 226 390 472 426 398 617 848 986 768 928 853 773 888
15 0 0 2 123 4 81 168 164 168 23 23 27 158 161 235 357 966 780 480 558 506 332 448 738 312 85 110 96 103 63 71 56 12 0 52 103 121 105 97 116 121 125 93 0 0 0 0 0 0 0 89 104 119 130 144 182 195 156 187 194 173 171 161 193 177 176 0 0 0 104 127 150 132 0 39 296 369 460 408 295 356 455 538 547 718 912
0 1 0 25 3 252 191 339 424 334 545 226 138 312 729 540 706 759 1026 777 673 580 410 313 74 50 37 58 79 87 78 72 37 8 0 0 27 76 77 57 30 20 22 21 0 0 0 0 0 0 0 0 0 48 82 91 114 119 128 145 168 193 195 192 185 140 155 144 0 0 0 0 66 16 25 6 7 91 172 289 221 133 343 445 404 448 555
29 0 0 68 181 196 204 461 324 212 170 150 243 390 875 716 808 838 867 898 790 626 390 281 221 25 29 1 0 14 17 39 45 10 7 30 66 50 29 1 0 0 0 0 0 0 0 0 0 0 0 0 40 73 74 50 83 106 111 121 135 153 153 143 150 162 141 142 124 105 19 132 0 0 94 89 14 0 7 17 45 25 18 154 301 391 426
245 134 146 207 351 295 226 211 186 208 138 98 306 419 811 1092 871 756 815 823 720 636 430 351 184 193 27 28 28 1 0 0 19 49 59 41 11 0 0 0 0 0 0 0 0 0 0 0 0 0 0 0 0 0 0 0 0 0 64 80 90 105 129 122 131 149 148 150 165 67 0 24 116 40 101 0 0 0 2 6 4 2 2 0 121 173 211
54 84 130 180 428 393 285 171 114 204 283 144 201 420 806 751 922 835 976 667 666 544 379 200 197 228 272 1 10 33 28 8 62 107 90 41 11 4 1 0 0 0 0 0 0 0 0 0 0 0 0 0 0 0 0 0 0 0 0 0 0 0 45 98 147 154 149 140 135 134 134 0 0 0 0 33 0 0 0 7 11 3 2 0 0 23 50
47 168 492 376 301 406 313 282 285 447 284 286 165 241 361 560 840 901 847 643 526 382 280 372 290 215 266 27 10 7 37 2 25 28 120 56 30 10 0 0 0 0 0 0 0 0 0 0 0 0 0 0 0 0 0 0 0 0 0 0 0 0 0 74 127 119 125 126 92 78 96 24 0 0 0 0 0 0 0 0 0 1 5 0 0 0 0
128 668 422 353 348 312 361 318 338 260 298 305 249 232 249 365 562 693 712 695 775 483 387 273 330 238 182 144 139 95 34 60 29 26 24 25 21 7 7 1 0 0 0 0 0 0 0 0 0 0 0 0 0 0 0 0 0 0 0 0 0 0 0 56 93 97 98 81 57 37 0 0 0 0 0 0 0 50 0 0 0 0 0 0 59 63 2
238 115 332 603 574 514 438 283 229 233 268 430 230 172 182 224 264 438 461 414 562 592 657 655 526 223 296 424 338 93 143 179 274 34 157 54 10 6 12 7 3 0 0 0 0 0 0 0 0 0 0 0 0 0 0 0 0 0 0 0 0 0 0 0 2 2 2 42 2 0 0 0 0 0 0 0 0 0 0 0 0 0 0 3 0 0 0
220 409 536 388 516 624 494 338 320 247 315 339 297 260 226 195 272 337 356 317 249 240 340 478 550 579 447 264 141 151 243 566 587 388 26 24 72 15 14 0 0 8 0 0 0 0 0 0 0 0 0 0 0 0 0 0 0 0 0 0 0 0 0 0 0 0 0 0 0 0 0 0 0 0 0 0 0 0 0 0 0 0 0 0 0 0 0
379 460 641 567 334 515 525 529 390 384 365 361 369 381 312 242 224 204 288 382 414 287 269 263 363 632 612 629 605 520 631 691 671 572 113 23 11 41 38 29 28 11 3 0 0 0 0 0 0 0 0 0 0 0 0 0 0 0 0 0 0 0 0 0 0 0 0 0 0 0 0 0 0 0 0 0 0 0 0 0 0 0 0 0 0 0 0
341 427 374 459 686 642 501 463 429 464 424 381 390 362 405 368 244 202 243 246 257 332 333 195 152 295 542 613 544 486 481 709 794 568 409 298 164 67 25 23 10 6 6 9 2 1 0 0 0 0 0 0 0 0 0 0 0 0 0 0 0 0 0 0 0 0 0 0 0 0 0 0 0 0 0 2 0 0 0 0 0 0 0 0 0 0 0
456 362 567 612 576 382 420 378 371 306 335 392 356 330 300 457 367 294 345 344 300 171 196 341 307 164 301 517 453 487 512 665 727 670 511 374 240 167 80 160 26 18 4 0 0 0 0 0 0 0 0 0 0 0 0 0 0 0 1 1 0 0 0 0 0 0 0 0 0 0 0 0 0 0 0 0 0 1 0 0 0 0 0 0 0 0 0
573 540 520 518 433 437 394 304 316 336 317 313 383 435 347 202 98 245 279 274 357 285 259 163 304 378 179 344 404 367 486 589 584 569 562 540 427 192 99 35 39 36 15 2 0 0 0 0 0 0 0 0 0 0 0 0 0 0 0 0 0 0 0 0 0 0 0 0 0 0 0 0 0 0 0 0 0 0 0 0 0 0 0 0 0 0 0
538 561 478 372 302 318 292 363 337 261 230 171 249 246 216 231 252 226 194 268 361 328 406 314 166 346 339 336 358 398 498 552 536 565 615 554 387 306 286 211 144 100 26 2 0 0 0 0 0 0 0 0 0 0 0 0 0 0 0 0 1 0 0 0 0 0 0 0 0 0 0 0 0 0 0 0 0 0 0 0 0 0 0 1 0 0 0
479 440 439 288 341 452 511 327 339 363 217 184 180 167 94 56 96 195 186 220 295 340 316 542 360 414 502 516 395 433 377 528 659 597 534 547 425 291 224 114 180 153 38 5 0 0 0 0 0 0 0 0 0 0 0 0 0 0 0 0 0 0 0 0 0 0 0 0 0 0 0 0 0 0 0 0 0 0 0 0 0 0 0 0 0 0 0
411 412 349 349 454 443 320 229 258 230 330 202 66 72 65 86 104 38 33 132 175 80 157 486 513 378 349 570 586 502 461 418 471 560 608 625 537 397 473 515 378 174 57 24 11 1 0 0 0 0 0 0 0 0 0 0 0 0 0 0 0 0 0 0 0 0 0 0 0 0 0 0 0 0 0 0 0 0 0 0 0 0 0 0 0 5 4
397 385 273 316 255 247 229 256 242 228 132 192 118 240 186 97 82 115 98 73 109 19 99 268 368 467 464 409 542 590 601 615 556 534 585 670 636 665 648 556 352 171 134 94 113 13 4 3 5 1 0 0 0 0 0 0 0 0 0 0 0 0 0 0 0 0 0 0 0 0 0 0 0 0 0 0 0 0 0 0 0 0 0 0 0 0 0
398 316 334 300 287 233 278 268 266 217 147 156 121 122 160 126 40 62 102 156 86 38 86 166 242 293 408 496 510 398 422 464 564 613 615 634 656 722 608 574 343 243 203 194 205 103 76 41 19 14 0 0 0 0 0 0 0 0 0 0 0 0 0 0 0 0 0 0 0 0 0 0 0 0 0 0 0 0 0 0 0 0 0 0 0 2 6
284 226 241 236 214 218 208 214 159 119 147 143 45 69 121 120 76 50 13 16 39 69 68 45 66 141 264 438 540 569 550 532 545 366 364 571 679 644 594 549 408 272 286 313 244 213 176 91 56 2 0 0 0 0 0 0 0 0 0 0 0 0 0 0 0 0 0 0 0 0 0 0 0 0 0 0 0 0 0 0 0 0 0 0 2 7 5
317 277 258 213 172 92 107 160 112 120 104 100 58 17 26 15 8 7 9 14 15 28 67 72 73 67 81 132 246 323 372 519 618 593 525 504 545 564 542 471 420 377 320 342 379 380 239 141 30 0 0 0 0 0 0 0 0 0 0 0 0 0 0 0 0 0 0 0 0 0 0 0 0 0 0 0 0 0 2 3 5 5 5 6 3 1 0
275 250 248 241 180 154 185 132 128 103 83 22 13 4 1 2 12 13 13 24 23 27 29 36 47 68 75 74 72 62 99 215 324 442 638 744 688 576 442 327 353 325 370 613 546 387 294 220 28 0 2 0 0 0 0 0 0 0 0 0 0 0 0 0 0 0 0 0 0 0 0 0 0 0 0 2 3 7 8 6 5 4 5 8 9 2 0
119 112 46 18 12 0 0 0 0 0 0 0 0 0 2 1 3 3 3 11 31 39 36 33 36 44 56 74 76 76 53 80 133 242 596 841 750 696 459 353 264 248 308 257 225 168 16 2 2 0 0 0 0 0 0 0 0 0 0 0 0 0 0 0 0 0 0 0 0 0 0 0 0 4 7 9 10 9 7 6 4 5 7 7 9 8 4
33 53 38 10 6 4 0 0 0 0 0 0 0 0 0 0 0 1 1 1 7 28 58 64 62 61 108 118 117 96 83 56 83 132 267 751 921 763 577 468 384 200 203 146 202 151 81 24 9 1 0 0 0 0 0 0 0 0 0 0 0 0 0 0 0 0 0 0 0 1 2 3 1 6 5 9 8 7 6 6 7 5 6 7 8 4 7
0 0 0 0 0 0 0 0 0 0 0 0 0 0 0 1 0 2 5 6 6 12 21 50 80 48 62 108 167 238 329 378 321 319 414 687 834 709 511 463 405 351 251 173 85 64 21 2 0 0 0 0 0 0 0 0 0 0 1 0 0 0 0 0 0 0 0 5 4 6 8 7 7 6 10 6 4 4 2 4 5 7 5 8 2 4 3
0 0 0 0 0 0 0 0 0 0 0 0 0 0 0 0 0 2 6 8 10 17 43 40 51 61 56 98 227 349 491 560 571 554 615 739 757 650 528 383 302 264 191 156 121 62 40 6 0 0 0 0 0 0 0 0 0 0 0 0 0 0 0 0 0 0 0 3 10 6 7 4 2 2 2 2 3 3 4 5 9 6 6 5 4 3 4
0 0 0 0 0 0 0 0 0 0 0 0 1 2 1 1 4 11 23 20 25 24 37 28 29 31 85 210 321 376 466 540 648 711 752 862 819 664 580 457 411 342 322 200 121 47 1 12 0 0 0 0 0 0 0 1 0 1 0 0 0 0 0 0 0 0 1 5 12 8 6 4 4 3 3 3 5 8 4 1 0 4 4 3 2 2 3
0 0 0 0 0 0 0 0 0 0 0 0 0 0 0 3 6 10 15 16 23 15 29 22 27 23 36 157 290 397 468 579 762 845 801 798 746 618 528 400 283 176 145 154 154 70 0 0 5 2 2 0 0 0 1 1 1 0 0 0 0 0 0 0 0 0 6 9 2 4 5 4 4 4 4 6 7 6 4 3 2 2 1 2 3 2 2
0 0 0 0 0 0 0 0 0 0 0 0 2 5 6 8 10 9 14 13 16 12 29 23 12 23 29 40 128 311 399 466 718 890 806 737 614 505 420 338 250 151 193 199 18 48 131 0 0 21 2 1 4 6 3 1 0 0 0 2 4 3 0 0 1 3 6 5 5 4 0 2 4 4 5 4 4 3 1 1 0 2 2 0 1 2 3
0 0 0 0 1 1 1 0 0 1 3 4 6 8 7 10 13 12 12 14 12 16 20 20 10 26 47 109 224 326 240 330 565 691 761 704 580 452 393 281 162 184 200 199 202 182 53 0 7 30 8 1 7 14 16 14 8 8 7 5 2 0 0 0 5 4 3 3 3 1 0 1 2 5 5 4 1 0 0 0 2 3 0 0 0 2 2
0 0 0 0 1 1 0 1 4 5 6 8 12 12 12 10 10 8 11 14 16 22 4 10 14 32 92 137 74 93 199 344 538 598 629 597 509 416 328 210 104 150 172 154 70 104 0 5 8 0 0 0 5 8 6 5 4 1 0 0 0 0 0 2 3 4 2 0 0 0 1 2 2 0 0 0 0 1 4 0 1 2 4 0 2 3 3
0 1 0 0 0 0 2 4 7 8 10 10 11 11 9 10 10 21 25 35 26 18 6 22 31 166 328 255 331 402 413 409 529 576 560 235 179 31 130 60 16 39 21 0 0 0 0 0 13 28 9 4 4 7 6 4 2 0 0 0 0 2 0 3 3 0 2 1 0 0 0 2 3 1 0 0 4 2 1 2 3 2 4 1 1 4 0
1 1 0 0 0 3 4 5 7 11 9 10 15 17 13 11 11 12 22 44 46 111 243 320 367 367 390 415 445 501 555 617 636 555 429 205 1 7 28 28 95 72 34 5 0 14 20 15 29 28 4 3 0 1 6 4 0 1 0 0 0 0 0 0 1 1 0 1 0 1 0 1 0 0 0 1 1 2 3 3 4 2 0 3 0 1 0
1 0 0 0 2 5 6 7 7 9 14 16 15 15 18 13 16 46 63 36 16 38 81 133 218 266 251 226 440 613 651 614 488 451 412 313 38 18 29 13 39 29 26 38 50 63 59 34 35 8 3 4 6 7 3 0 0 0 0 0 1 3 1 2 3 3 2 1 2 3 3 2 2 2 0 2 0 3 0 0 1 2 4 0 0 0 4
0 0 0 4 4 6 8 8 11 13 20 20 16 13 14 13 15 23 16 18 4 57 1 5 27 61 110 312 444 527 337 224 9 60 104 62 4 16 20 21 9 0 25 50 24 13 7 23 21 10 4 1 0 0 0 0 0 0 0 0 1 0 0 3 2 0 0 4 3 1 1 2 0 2 0 3 1 4 4 0 4 2 0 3 0 0 0
0 0 4 5 6 5 8 11 16 16 16 16 21 20 14 13 18 14 12 8 5 4 47 177 253 270 308 477 374 355 319 88 15 33 13 3 22 14 28 14 17 34 48 28 7 0 1 2 2 2 1 1 0 0 0 0 0 0 4 3 3 6 5 3 2 2 0 0 3 0 1 1 4 4 3 0 1 4 3 3 4 0 0 0 0 2 1
2 7 6 4 5 8 10 13 12 18 19 20 26 15 12 13 14 10 8 8 8 8 11 10 55 9 23 48 32 100 103 57 42 33 17 11 11 17 25 43 35 37 23 4 0 0 0 1 1 0 0 0 0 0 1 2 5 3 3 3 3 2 3 0 6 4 4 0 0 0 4 1 2 4 3 2 0 4 1 0 0 0 0 0 1 0 0
6 8 6 7 8 8 7 9 11 17 20 25 23 13 15 14 13 13 12 11 12 14 13 16 9 0 4 1 0 8 12 7 3 2 23 3 1 0 4 0 0 0 0 0 0 0 0 0 0 0 0 2 3 0 4 6 6 7 2 2 3 4 4 1 0 0 5 6 2 1 2 1 2 1 0 0 0 0 5 2 1 0 0 0 3 0 0
8 5 6 7 5 6 8 10 13 17 19 18 15 2 0 4 18 8 12 14 18 14 14 13 10 7 4 6 6 29 23 11 11 11 14 2 1 5 7 5 7 4 3 2 3 0 0 0 0 0 1 3 2 4 6 5 7 4 2 0 7 0 1 2 0 1 0 0 6 4 1 5 0 0 0 0 3 0 0 3 0 0 0 0 1 0 0
8 9 7 4 3 4 3 5 11 17 19 18 18 16 12 13 4 4 2 0 7 7 6 9 12 15 13 6 2 8 12 4 9 11 14 16 16 10 16 10 10 6 1 4 1 0 0 0 0 0 1 5 4 5 0 1 8 9 0 7 5 2 3 0 2 1 0 0 5 0 0 0 5 2 0 0 0 0 0 0 0 2 0 0 0 0 0
Wind_Speed
nan nan nan nan 34 38 40 39 38 37 34 32 nan nan 40 36 nan nan 26 25 21 27 24 22 23 26 29 30 31 31 33 32 30 28 26 25 23 22 22 21 19 16 16 16 15 14 12 11 10 8 6 7 10 13 18 22 22 21 21 19 16 15 14 13 14 15 16 15 16 16 16 17 17 17 19 20 21 21 20 18 18 16 15 15 16 16 16
nan nan nan nan nan 35 40 41 40 38 38 41 41 41 41 38 36 32 28 29 32 33 31 25 24 25 28 31 32 32 31 32 32 31 30 29 27 25 25 24 23 22 20 19 17 17 16 14 12 11 11 10 11 10 11 15 18 20 21 20 19 18 16 15 17 18 19 20 20 18 17 17 17 17 18 19 21 22 22 21 20 19 19 18 17 17 17
nan nan nan nan nan nan nan 42 41 39 38 40 43 42 43 40 40 37 36 35 37 38 35 30 28 28 29 29 29 30 33 33 32 31 31 31 31 28 28 28 26 25 25 24 22 21 20 19 18 17 16 14 15 13 14 12 14 14 14 18 22 24 23 22 21 21 22 23 23 22 22 22 20 19 18 19 20 21 23 23 22 22 21 20 19 19 19
nan nan nan nan nan nan nan 43 44 43 42 39 42 41 43 41 41 38 37 36 36 35 33 33 31 28 26 27 29 30 28 29 29 29 30 30 30 30 30 29 30 30 28 26 25 25 26 27 28 27 25 25 25 25 23 22 13 12 13 15 16 18 20 22 23 24 27 30 28 27 26 26 26 25 22 20 20 20 21 22 25 25 23 22 22 21 22
26 34 nan nan nan nan nan 41 43 43 42 40 39 41 42 42 39 32 33 43 41 36 34 34 32 29 30 31 30 27 26 26 26 27 29 29 31 32 31 32 33 33 32 30 28 28 28 28 30 30 29 29 28 27 28 26 18 18 19 17 16 16 18 20 25 29 29 28 30 31 33 34 30 28 26 25 23 21 21 23 25 25 25 24 23 23 23
27 nan nan nan nan nan nan nan nan 41 43 41 41 42 41 41 40 41 43 43 41 37 34 34 33 33 34 34 33 29 27 27 28 29 30 33 34 33 32 33 34 34 33 30 28 29 29 29 31 32 32 32 32 31 31 30 29 28 28 27 27 27 25 24 24 27 27 27 30 32 34 34 34 30 28 27 27 26 26 25 25 25 25 25 26 26 25
nan nan nan nan nan nan nan nan nan nan 38 39 39 41 41 40 38 36 38 39 36 35 35 34 34 34 36 40 41 38 36 34 33 33 38 40 37 36 36 37 37 36 36 33 31 30 29 29 30 34 35 35 35 35 34 34 32 32 32 32 31 29 29 29 26 21 23 25 29 33 34 35 35 32 31 29 28 29 29 29 27 27 26 26 28 27 27
25 nan nan nan nan nan nan nan nan nan nan nan 31 38 43 42 39 36 37 36 36 36 38 38 38 37 41 42 41 42 41 39 39 40 44 43 41 41 40 41 38 36 36 35 34 32 30 29 30 31 34 35 37 37 36 36 35 34 35 35 34 33 33 31 27 25 24 23 23 26 30 33 33 33 32 31 32 34 32 32 33 31 30 28 28 28 28
13 18 nan nan 28 nan 34 nan nan nan nan nan 42 38 42 39 39 36 34 34 33 36 39 41 40 41 42 41 40 40 40 42 46 48 48 46 46 46 44 42 42 41 41 39 35 34 35 36 34 33 33 34 36 36 36 37 37 36 35 36 37 37 36 35 33 29 29 30 31 30 26 25 30 31 31 30 32 35 35 34 35 36 31 31 32 34 35
11 12 17 nan nan nan nan nan nan nan nan nan nan 34 39 39 39 36 33 34 35 37 36 37 39 38 39 41 42 43 45 46 49 51 52 51 50 50 49 46 44 43 42 40 38 36 38 38 37 35 34 34 35 35 36 37 37 36 36 36 35 36 36 36 35 32 29 28 29 30 31 32 29 26 27 27 29 30 31 32 34 36 38 34 39 39 36
nan 8 nan nan nan nan nan nan nan nan nan nan nan 34 39 39 36 34 33 33 31 32 35 36 33 34 38 42 44 45 46 48 49 50 52 53 54 51 48 47 46 45 44 43 41 39 39 39 38 37 36 36 37 38 37 37 37 37 37 36 36 36 36 36 35 34 33 31 30 30 30 30 31 31 30 31 31 28 27 29 31 36 43 46 44 42 44
nan nan nan nan nan 21 nan nan nan nan nan nan nan nan nan nan 36 34 34 35 37 39 44 46 48 47 45 44 45 44 46 46 48 49 48 50 nan 47 46 46 46 45 43 42 nan nan nan nan nan nan 38 38 39 38 38 38 39 38 37 37 37 36 37 nan nan nan 37 36 35 32 30 28 27 28 26 27 27 27 29 29 31 34 39 41 43 45 47
nan nan nan nan 18 nan nan nan nan nan nan nan nan nan nan nan 37 34 34 34 37 41 41 38 42 44 42 42 47 47 43 nan nan nan nan nan nan 43 42 nan nan nan nan nan nan nan nan 38 nan nan 39 39 39 38 38 39 40 39 37 36 37 37 37 38 38 36 nan nan 37 36 32 30 30 29 26 23 21 22 23 25 26 29 32 34 39 46 50
nan nan nan nan 20 nan nan 18 19 19 nan nan nan 28 24 27 32 34 36 31 32 35 39 38 40 40 nan 37 nan 41 nan nan nan nan nan nan 43 42 41 nan 36 38 39 nan nan nan nan nan nan nan nan nan 41 40 39 40 40 38 37 36 37 38 38 38 38 37 36 nan nan nan 33 34 34 35 nan nan 25 24 22 23 24 26 25 25 25 31 39
nan nan nan nan nan 17 19 19 12 21 20 22 23 22 24 24 27 29 31 32 30 34 39 41 nan nan nan nan nan nan nan nan nan nan nan nan nan nan nan nan nan nan nan nan nan nan nan nan nan nan nan nan nan nan nan nan 39 39 38 37 37 37 37 37 37 37 36 37 nan nan nan nan nan nan nan nan nan nan 31 26 27 29 27 24 24 24 26
nan nan nan nan 18 16 20 20 18 21 22 21 21 20 25 27 26 28 28 29 29 35 38 42 42 nan nan nan nan nan nan nan nan nan nan nan nan nan nan nan nan nan nan nan nan nan nan nan nan nan nan nan nan nan nan nan nan 41 40 39 38 38 37 37 36 36 36 37 36 34 nan 32 nan nan nan nan nan nan nan nan nan nan nan 33 33 32 29
15 18 18 17 16 16 18 19 19 19 18 nan 19 20 22 25 27 28 29 32 30 30 34 39 39 38 nan nan nan nan nan nan nan nan nan nan nan nan nan nan nan nan nan nan nan nan nan nan nan nan nan nan nan nan nan nan nan nan nan nan nan 39 38 37 37 36 36 36 36 nan nan nan 33 nan 34 nan nan nan nan nan nan nan nan nan 34 32 30
nan nan 17 15 16 18 18 18 18 18 20 20 20 23 24 27 28 27 30 30 34 37 36 36 36 36 40 nan nan nan nan nan nan 37 nan nan nan nan nan nan nan nan nan nan nan nan nan nan nan nan nan nan nan nan nan nan nan nan nan nan nan nan nan nan 37 37 36 36 36 37 37 nan nan nan nan nan nan nan nan nan nan nan nan nan nan nan nan
nan 12 13 15 17 16 18 19 19 18 21 22 22 24 25 26 27 28 29 30 31 36 37 35 33 33 34 nan nan nan nan nan nan nan 41 nan nan nan nan nan nan nan nan nan nan nan nan nan nan nan nan nan nan nan nan nan nan nan nan nan nan nan nan nan 40 40 38 37 nan nan nan nan nan nan nan nan nan nan nan nan nan nan nan nan nan nan nan
11 17 16 16 17 17 17 17 18 20 21 22 23 23 24 24 25 27 29 28 29 31 33 37 38 33 30 32 35 nan nan nan nan nan nan nan nan nan nan nan nan nan nan nan nan nan nan nan nan nan nan nan nan nan nan nan nan nan nan nan nan nan nan nan nan nan nan nan nan nan nan nan nan nan nan nan nan nan nan nan nan nan nan nan nan nan nan
18 16 17 17 17 19 21 22 22 22 21 21 23 24 25 27 28 28 28 29 30 29 33 34 36 36 32 30 33 nan 30 31 32 nan 38 nan nan nan nan nan nan nan nan nan nan nan nan nan nan nan nan nan nan nan nan nan nan nan nan nan nan nan nan nan nan nan nan nan nan nan nan nan nan nan nan nan nan nan nan nan nan nan nan nan nan nan nan
11 16 20 16 14 18 22 24 25 24 24 24 25 25 27 28 28 28 29 29 29 29 31 32 32 32 33 33 31 30 32 35 37 39 nan nan nan nan nan nan nan nan nan nan nan nan nan nan nan nan nan nan nan nan nan nan nan nan nan nan nan nan nan nan nan nan nan nan nan nan nan nan nan nan nan nan nan nan nan nan nan nan nan nan nan nan nan
19 23 21 22 22 24 25 25 25 26 26 27 29 29 29 29 29 28 29 29 30 30 30 31 31 32 31 31 31 30 32 33 35 36 37 nan nan nan nan nan nan nan nan nan nan nan nan nan nan nan nan nan nan nan nan nan nan nan nan nan nan nan nan nan nan nan nan nan nan nan nan nan nan nan nan nan nan nan nan nan nan nan nan nan nan nan nan
24 23 24 23 23 24 27 27 27 28 27 28 30 31 31 31 32 31 31 31 31 31 32 32 31 32 32 31 30 29 32 34 35 36 36 38 39 nan nan nan nan nan nan nan nan nan nan nan nan nan nan nan nan nan nan nan nan nan nan nan nan nan nan nan nan nan nan nan nan nan nan nan nan nan nan nan nan nan nan nan nan nan nan nan nan nan nan
21 22 23 24 25 27 27 27 28 29 30 30 31 32 33 32 33 33 34 34 34 34 34 35 34 34 32 33 32 32 32 34 35 37 38 40 40 41 nan 43 nan nan nan nan nan nan nan nan nan nan nan nan nan nan nan nan nan nan nan nan nan nan nan nan nan nan nan nan nan nan nan nan nan nan nan nan nan nan nan nan nan nan nan nan nan nan nan
22 23 23 23 24 25 26 26 28 29 30 30 31 32 33 34 nan 32 34 35 36 37 37 37 37 37 36 34 34 34 34 35 37 38 39 40 41 41 nan nan nan nan nan nan nan nan nan nan nan nan nan nan nan nan nan nan nan nan nan nan nan nan nan nan nan nan nan nan nan nan nan nan nan nan nan nan nan nan nan nan nan nan nan nan nan nan nan
23 23 22 22 22 24 24 22 27 31 31 31 31 32 33 34 32 32 34 35 37 38 40 41 41 40 39 39 37 37 36 37 39 38 37 38 40 40 41 41 42 44 nan nan nan nan nan nan nan nan nan nan nan nan nan nan nan nan nan nan nan nan nan nan nan nan nan nan nan nan nan nan nan nan nan nan nan nan nan nan nan nan nan nan nan nan nan
24 23 21 20 23 26 28 30 30 30 30 31 32 32 nan nan nan 34 35 37 38 40 40 42 43 43 42 43 42 42 41 40 39 39 38 38 39 42 43 43 44 45 nan nan nan nan nan nan nan nan nan nan nan nan nan nan nan nan nan nan nan nan nan nan nan nan nan nan nan nan nan nan nan nan nan nan nan nan nan nan nan nan nan nan nan nan nan
24 24 25 25 28 30 31 30 30 30 30 31 nan nan nan nan 34 nan nan 38 40 nan 40 43 45 45 45 46 45 44 44 43 42 41 41 42 43 44 46 47 47 47 nan nan nan nan nan nan nan nan nan nan nan nan nan nan nan nan nan nan nan nan nan nan nan nan nan nan nan nan nan nan nan nan nan nan nan nan nan nan nan nan nan nan nan nan nan
25 25 25 26 27 27 27 28 28 30 30 31 30 31 32 nan nan 35 nan nan 39 nan nan 43 43 45 48 47 48 47 46 45 45 45 45 47 48 48 49 50 50 49 48 nan 48 nan nan nan nan nan nan nan nan nan nan nan nan nan nan nan nan nan nan nan nan nan nan nan nan nan nan nan nan nan nan nan nan nan nan nan nan nan nan nan nan nan nan
26 26 25 26 26 26 26 28 30 31 31 33 33 32 34 35 nan nan 38 40 nan nan nan 42 43 43 45 47 48 49 49 49 48 47 47 48 48 50 51 52 51 50 49 49 50 50 nan nan nan nan nan nan nan nan nan nan nan nan nan nan nan nan nan nan nan nan nan nan nan nan nan nan nan nan nan nan nan nan nan nan nan nan nan nan nan nan nan
27 27 27 27 28 28 30 31 31 32 34 35 nan nan 35 36 nan nan nan nan nan nan nan nan nan 45 46 48 49 49 49 50 51 50 49 49 49 49 50 50 49 50 51 52 53 53 52 nan nan nan nan nan nan nan nan nan nan nan nan nan nan nan nan nan nan nan nan nan nan nan nan nan nan nan nan nan nan nan nan nan nan nan nan nan nan nan nan
26 27 28 29 30 nan 30 32 32 32 34 nan nan nan nan nan nan nan nan nan nan nan nan nan nan nan nan 49 50 49 49 50 50 50 50 50 50 50 49 50 49 50 50 52 53 54 54 53 nan nan nan nan nan nan nan nan nan nan nan nan nan nan nan nan nan nan nan nan nan nan nan nan nan nan nan nan nan nan nan nan nan nan nan nan nan nan nan
24 25 28 31 30 30 30 30 32 32 nan nan nan nan nan nan nan nan nan nan nan nan nan nan nan nan nan nan nan nan nan 50 50 50 50 50 51 51 51 51 53 51 50 52 54 53 54 55 nan nan nan nan nan nan nan nan nan nan nan nan nan nan nan nan nan nan nan nan nan nan nan nan nan nan nan nan nan nan nan nan nan nan nan nan nan nan nan
28 29 nan nan nan nan nan nan nan nan nan nan nan nan nan nan nan nan nan nan nan nan nan nan nan nan nan nan nan nan nan nan 50 51 51 52 51 52 52 51 52 51 52 52 52 51 nan nan nan nan nan nan nan nan nan nan nan nan nan nan nan nan nan nan nan nan nan nan nan nan nan nan nan nan nan nan nan nan nan nan nan nan nan nan nan nan nan
nan nan nan nan nan nan nan nan nan nan nan nan nan nan nan nan nan nan nan nan nan nan nan nan nan nan 40 40 40 nan nan nan nan 49 51 52 53 54 53 52 51 50 50 49 50 51 nan nan nan nan nan nan nan nan nan nan nan nan nan nan nan nan nan nan nan nan nan nan nan nan nan nan nan nan nan nan nan nan nan nan nan nan nan nan nan nan nan
nan nan nan nan nan nan nan nan nan nan nan nan nan nan nan nan nan nan nan nan nan nan nan nan nan nan nan 40 40 41 42 43 45 46 49 51 53 53 53 53 52 51 51 50 nan nan nan nan nan nan nan nan nan nan nan nan nan nan nan nan nan nan nan nan nan nan nan nan nan nan nan nan nan nan nan nan nan nan nan nan nan nan nan nan nan nan nan
nan nan nan nan nan nan nan nan nan nan nan nan nan nan nan nan nan nan nan nan nan nan nan nan nan nan nan nan 39 39 40 41 42 43 45 47 50 50 50 51 52 52 51 50 53 nan nan nan nan nan nan nan nan nan nan nan nan nan nan nan nan nan nan nan nan nan nan nan nan nan nan nan nan nan nan nan nan nan nan nan nan nan nan nan nan nan nan
nan nan nan nan nan nan nan nan nan nan nan nan nan nan nan nan nan nan nan nan nan nan nan nan nan nan nan 34 35 36 37 38 39 40 42 43 46 46 47 48 49 50 52 55 61 nan nan nan nan nan nan nan nan nan nan nan nan nan nan nan nan nan nan nan nan nan nan nan nan nan nan nan nan nan nan nan nan nan nan nan nan nan nan nan nan nan nan
nan nan nan nan nan nan nan nan nan nan nan nan nan nan nan nan nan nan nan nan nan nan nan nan nan nan nan 31 32 34 35 36 37 39 40 42 43 43 44 46 49 52 56 63 61 nan nan nan nan nan nan nan nan nan nan nan nan nan nan nan nan nan nan nan nan nan nan nan nan nan nan nan nan nan nan nan nan nan nan nan nan nan nan nan nan nan nan
nan nan nan nan nan nan nan nan nan nan nan nan nan nan nan nan nan nan nan nan nan nan nan nan nan nan nan nan 31 32 33 34 36 37 40 41 41 42 41 45 50 52 52 52 nan nan 58 nan nan nan nan nan nan nan nan nan nan nan nan nan nan nan nan nan nan nan nan nan nan nan nan nan nan nan nan nan nan nan nan nan nan nan nan nan nan nan nan
nan nan nan nan nan nan nan nan nan nan nan nan nan nan nan nan nan nan nan nan nan nan nan nan nan nan nan 32 33 34 35 33 34 35 36 38 39 40 39 42 44 44 49 54 60 57 nan nan nan nan nan nan nan nan nan nan nan nan nan nan nan nan nan nan nan nan nan nan nan nan nan nan nan nan nan nan nan nan nan nan nan nan nan nan nan nan nan
nan nan nan nan nan nan nan nan nan nan nan nan nan nan nan nan nan nan nan nan nan nan nan nan nan nan nan 33 nan nan 35 35 35 36 36 35 35 35 36 42 44 48 51 47 nan 49 nan nan nan nan nan nan nan nan nan nan nan nan nan nan nan nan nan nan nan nan nan nan nan nan nan nan nan nan nan nan nan nan nan nan nan nan nan nan nan nan nan
nan nan nan nan nan nan nan nan nan nan nan nan nan nan nan nan nan nan nan nan nan nan nan nan nan 28 29 31 33 34 35 35 36 38 38 40 40 nan 39 nan nan nan nan nan nan nan nan nan nan nan nan nan nan nan nan nan nan nan nan nan nan nan nan nan nan nan nan nan nan nan nan nan nan nan nan nan nan nan nan nan nan nan nan nan nan nan nan
nan nan nan nan nan nan nan nan nan nan nan nan nan nan nan nan nan nan nan nan nan 25 24 25 26 27 27 28 29 31 33 35 34 36 36 37 nan nan nan nan nan nan nan nan nan nan nan nan nan nan nan nan nan nan nan nan nan nan nan nan nan nan nan nan nan nan nan nan nan nan nan nan nan nan nan nan nan nan nan nan nan nan nan nan nan nan nan
nan nan nan nan nan nan nan nan nan nan nan nan nan nan nan nan nan nan nan nan nan nan nan 24 24 22 19 20 23 31 36 36 33 32 33 35 nan nan nan nan nan nan nan nan nan nan nan nan nan nan nan nan nan nan nan nan nan nan nan nan nan nan nan nan nan nan nan nan nan nan nan nan nan nan nan nan nan nan nan nan nan nan nan nan nan nan nan
nan nan nan nan nan nan nan nan nan nan nan nan nan nan nan nan nan nan nan nan nan nan nan nan nan nan 11 14 20 27 32 32 nan nan 37 nan nan nan nan nan nan nan nan nan nan nan nan nan nan nan nan nan nan nan nan nan nan nan nan nan nan nan nan nan nan nan nan nan nan nan nan nan nan nan nan nan nan nan nan nan nan nan nan nan nan nan nan
nan nan nan nan nan nan nan nan nan nan nan nan nan nan nan nan nan nan nan nan nan nan nan 20 20 15 14 18 19 20 22 nan nan nan nan nan nan nan nan nan nan nan nan nan nan nan nan nan nan nan nan nan nan nan nan nan nan nan nan nan nan nan nan nan nan nan nan nan nan nan nan nan nan nan nan nan nan nan nan nan nan nan nan nan nan nan nan
nan nan nan nan nan nan nan nan nan nan nan nan nan nan nan nan nan nan nan nan nan nan nan nan nan nan nan nan nan nan 18 nan nan nan nan nan nan nan nan nan nan nan nan nan nan nan nan nan nan nan nan nan nan nan nan nan nan nan nan nan nan nan nan nan nan nan nan nan nan nan nan nan nan nan nan nan nan nan nan nan nan nan nan nan nan nan nan
nan nan nan nan nan nan nan nan nan nan nan nan nan nan nan nan nan nan nan nan nan nan nan nan nan nan nan nan nan nan nan nan nan nan nan nan nan nan nan nan nan nan nan nan nan nan nan nan nan nan nan nan nan nan nan nan nan nan nan nan nan nan nan nan nan nan nan nan nan nan nan nan nan nan nan nan nan nan nan nan nan nan nan nan nan nan nan
nan nan nan nan nan nan nan nan nan nan nan nan nan nan nan nan nan nan nan nan nan nan nan nan nan nan nan nan nan nan nan nan nan nan nan nan nan nan nan nan nan nan nan nan nan nan nan nan nan nan nan nan nan nan nan nan nan nan nan nan nan nan nan nan nan nan nan nan nan nan nan nan nan nan nan nan nan nan nan nan nan nan nan nan nan nan nan
nan nan nan nan nan nan nan nan nan nan nan nan nan nan nan nan nan nan nan nan nan nan nan nan nan nan nan nan nan nan nan nan nan nan nan nan nan nan nan nan nan nan nan nan nan nan nan nan nan nan nan nan nan nan nan nan nan nan nan nan nan nan nan nan nan nan nan nan nan nan nan nan nan nan nan nan nan nan nan nan nan nan nan nan nan nan nan
Wind_Direction
nan nan nan nan 214 216 217 216 215 216 217 219 nan nan 217 218 nan nan 236 238 225 240 240 230 222 225 226 227 230 233 235 239 246 253 257 258 260 259 253 247 246 251 257 260 268 275 281 282 280 276 272 293 295 268 239 232 234 230 229 233 239 244 249 249 254 257 256 253 251 249 244 241 239 238 240 244 248 250 252 250 252 253 253 255 260 263 265
nan nan nan nan nan 217 219 216 216 217 218 220 220 223 221 220 224 223 228 233 230 239 243 235 232 228 231 231 233 237 240 242 249 255 258 259 258 257 255 253 249 247 251 254 258 263 267 268 270 273 271 258 259 267 257 245 246 245 243 242 243 245 247 252 255 258 262 260 256 253 255 252 248 242 241 243 247 251 252 253 251 248 247 249 251 254 256
nan nan nan nan nan nan nan 218 216 216 217 220 219 219 221 219 229 232 242 245 241 237 242 243 237 231 234 235 236 238 239 243 247 251 254 254 253 252 253 251 252 253 251 252 256 258 257 256 252 253 255 255 264 263 252 252 256 251 263 261 254 254 255 256 258 259 259 262 261 261 259 257 257 254 247 244 245 247 249 251 250 251 247 248 247 248 252
nan nan nan nan nan nan nan 218 215 216 216 218 218 219 219 219 228 234 244 245 245 245 247 247 243 241 243 244 242 238 236 240 242 246 249 250 251 254 255 256 257 258 258 257 256 254 249 247 247 249 250 250 252 253 257 257 256 272 275 270 268 269 267 264 262 259 257 252 248 251 255 259 259 258 255 253 249 248 247 250 251 249 251 249 246 244 246
223 221 nan nan nan nan nan 218 212 210 218 219 226 226 225 225 219 227 232 236 242 252 255 256 251 250 246 245 245 241 237 240 246 248 250 252 253 254 258 258 255 254 256 257 257 254 251 248 247 248 250 250 251 255 254 257 265 257 254 260 260 264 267 268 262 255 253 254 253 253 253 253 255 255 256 254 253 252 249 245 245 249 248 248 250 248 244
223 nan nan nan nan nan nan nan nan 209 213 214 222 225 224 224 221 226 228 238 246 254 258 258 255 250 244 244 244 242 240 242 243 247 251 254 255 256 258 260 261 259 258 258 257 256 254 251 246 245 248 251 252 252 255 258 258 255 256 252 251 248 250 251 254 254 253 255 252 251 255 257 257 260 259 257 254 254 252 248 243 244 248 248 249 252 250
nan nan nan nan nan nan nan nan nan nan 210 216 223 229 228 226 232 235 238 242 249 252 253 253 251 249 247 244 246 245 241 239 241 245 250 251 252 256 259 260 261 262 262 262 263 259 255 256 254 250 249 252 253 253 254 254 253 253 254 253 250 250 251 250 249 252 257 259 260 259 258 257 258 261 261 258 257 258 257 255 253 250 246 248 249 251 255
228 nan nan nan nan nan nan nan nan nan nan nan 223 232 230 230 231 238 245 248 251 253 253 252 252 254 251 247 244 247 246 246 248 250 251 253 256 257 258 262 265 267 264 263 261 257 255 255 257 256 253 252 252 253 252 253 253 253 255 254 252 251 251 251 249 244 244 250 257 264 262 259 259 260 259 256 256 256 256 257 254 252 251 249 249 248 247
214 234 nan nan 229 nan 220 nan nan nan nan nan 217 227 231 229 234 242 251 254 255 256 254 253 254 254 255 252 249 247 251 252 249 251 255 255 257 259 261 263 264 262 261 259 258 258 253 251 251 250 249 251 251 252 252 252 252 252 251 251 250 249 251 253 252 250 249 250 251 247 247 257 260 258 257 257 254 256 256 254 253 253 252 249 248 246 248
185 221 243 nan nan nan nan nan nan nan nan nan nan 219 232 227 233 242 252 253 249 249 253 253 253 255 254 253 252 250 250 250 254 254 255 257 257 258 259 260 260 262 261 260 259 257 255 251 250 252 254 255 253 250 250 250 250 250 250 250 251 250 249 251 251 250 251 251 250 250 246 242 245 253 264 262 259 258 260 261 255 249 248 249 245 246 246
nan 210 nan nan nan nan nan nan nan nan nan nan nan 221 229 221 225 235 243 247 250 251 251 249 250 248 248 248 249 248 250 253 253 256 258 257 256 255 257 259 260 261 262 262 262 260 257 255 252 251 250 252 253 250 249 249 248 248 249 250 251 251 251 251 251 250 248 247 248 249 246 244 244 242 246 255 252 255 260 258 252 252 249 245 242 241 243
nan nan nan nan nan 232 nan nan nan nan nan nan nan nan nan nan 217 225 234 243 249 244 236 232 232 234 239 241 244 246 245 246 250 251 251 253 nan 250 251 252 254 256 260 264 nan nan nan nan nan nan 249 249 251 251 251 251 250 249 248 248 249 250 251 nan nan nan 251 250 253 252 250 245 243 243 244 247 251 253 256 257 257 256 257 254 248 239 238
nan nan nan nan 242 nan nan nan nan nan nan nan nan nan nan nan 207 218 229 237 243 251 253 241 239 234 229 234 241 248 248 nan nan nan nan nan nan 246 247 nan nan nan nan nan nan nan nan 251 nan nan 247 248 250 251 252 252 251 252 253 252 251 251 250 251 252 252 nan nan 252 251 249 250 249 248 249 250 250 252 253 252 250 253 254 253 249 243 241
nan nan nan nan 237 nan nan 204 203 208 nan nan nan 222 217 211 207 214 213 231 239 247 250 244 240 238 nan 250 nan 249 nan nan nan nan nan nan 242 239 243 nan 249 251 253 nan nan nan nan nan nan nan nan nan 247 249 251 252 253 254 253 252 253 254 253 252 251 250 250 nan nan nan 251 252 254 255 nan nan 257 260 253 252 258 258 255 254 249 246 247
nan nan nan nan nan 231 207 185 208 214 211 226 220 214 224 225 221 222 218 221 234 243 244 243 nan nan nan nan nan nan nan nan nan nan nan nan nan nan nan nan nan nan nan nan nan nan nan nan nan nan nan nan nan nan nan nan 253 253 253 252 253 254 255 255 254 253 252 251 nan nan nan nan nan nan nan nan nan nan 264 260 269 270 263 257 261 263 265
nan nan nan nan 224 217 212 206 224 222 222 215 214 214 226 233 236 238 236 237 235 238 243 247 247 nan nan nan nan nan nan nan nan nan nan nan nan nan nan nan nan nan nan nan nan nan nan nan nan nan nan nan nan nan nan nan nan 253 254 254 254 254 255 255 256 255 254 252 251 251 nan 251 nan nan nan nan nan nan nan nan nan nan nan 266 270 273 275
210 225 234 236 230 227 227 224 229 227 226 nan 213 218 222 230 240 236 242 249 250 245 247 246 246 252 nan nan nan nan nan nan nan nan nan nan nan nan nan nan nan nan nan nan nan nan nan nan nan nan nan nan nan nan nan nan nan nan nan nan nan 254 254 255 256 256 255 254 252 nan nan nan 249 nan 252 nan nan nan nan nan nan nan nan nan 273 273 270
nan nan 229 239 243 236 236 242 236 228 226 225 220 218 224 226 230 233 236 246 254 250 242 250 247 243 252 nan nan nan nan nan nan 251 nan nan nan nan nan nan nan nan nan nan nan nan nan nan nan nan nan nan nan nan nan nan nan nan nan nan nan nan nan nan 253 255 256 256 255 254 254 nan nan nan nan nan nan nan nan nan nan nan nan nan nan nan nan
nan 250 253 247 243 243 240 243 250 245 234 230 225 227 226 225 225 229 232 237 245 256 260 253 251 250 251 nan nan nan nan nan nan nan 249 nan nan nan nan nan nan nan nan nan nan nan nan nan nan nan nan nan nan nan nan nan nan nan nan nan nan nan nan nan 252 249 248 249 nan nan nan nan nan nan nan nan nan nan nan nan nan nan nan nan nan nan nan
235 249 254 251 250 247 241 236 243 241 238 235 234 235 233 231 232 228 229 228 237 244 251 257 259 257 256 257 252 nan nan nan nan nan nan nan nan nan nan nan nan nan nan nan nan nan nan nan nan nan nan nan nan nan nan nan nan nan nan nan nan nan nan nan nan nan nan nan nan nan nan nan nan nan nan nan nan nan nan nan nan nan nan nan nan nan nan
256 262 262 260 260 256 253 250 244 242 240 239 240 237 235 235 234 235 235 231 229 232 236 240 253 262 263 263 264 nan 259 264 264 nan 254 nan nan nan nan nan nan nan nan nan nan nan nan nan nan nan nan nan nan nan nan nan nan nan nan nan nan nan nan nan nan nan nan nan nan nan nan nan nan nan nan nan nan nan nan nan nan nan nan nan nan nan nan
260 253 258 260 260 264 260 251 248 247 246 245 245 243 240 236 235 234 235 238 235 235 234 236 240 249 257 264 266 266 264 266 269 267 nan nan nan nan nan nan nan nan nan nan nan nan nan nan nan nan nan nan nan nan nan nan nan nan nan nan nan nan nan nan nan nan nan nan nan nan nan nan nan nan nan nan nan nan nan nan nan nan nan nan nan nan nan
248 251 250 249 251 255 251 253 252 250 248 249 247 247 244 243 241 236 236 237 239 240 241 242 242 245 249 254 257 260 261 262 264 265 266 nan nan nan nan nan nan nan nan nan nan nan nan nan nan nan nan nan nan nan nan nan nan nan nan nan nan nan nan nan nan nan nan nan nan nan nan nan nan nan nan nan nan nan nan nan nan nan nan nan nan nan nan
259 250 253 250 247 254 260 256 254 252 249 250 253 251 249 248 245 243 242 240 237 239 243 244 245 247 248 251 253 253 257 260 263 265 265 264 264 nan nan nan nan nan nan nan nan nan nan nan nan nan nan nan nan nan nan nan nan nan nan nan nan nan nan nan nan nan nan nan nan nan nan nan nan nan nan nan nan nan nan nan nan nan nan nan nan nan nan
262 259 260 257 259 263 264 262 259 257 253 250 252 251 249 248 248 247 247 246 245 241 240 243 247 247 248 251 253 255 256 259 262 264 266 266 266 264 nan 262 nan nan nan nan nan nan nan nan nan nan nan nan nan nan nan nan nan nan nan nan nan nan nan nan nan nan nan nan nan nan nan nan nan nan nan nan nan nan nan nan nan nan nan nan nan nan nan
267 270 269 268 268 267 266 268 266 261 259 257 257 257 255 254 nan 248 250 249 250 249 247 245 247 251 250 251 254 256 256 258 262 264 265 266 266 267 nan nan nan nan nan nan nan nan nan nan nan nan nan nan nan nan nan nan nan nan nan nan nan nan nan nan nan nan nan nan nan nan nan nan nan nan nan nan nan nan nan nan nan nan nan nan nan nan nan
271 273 276 276 274 269 265 257 261 260 258 257 256 256 256 254 255 253 252 254 252 252 252 252 251 253 253 254 255 256 257 260 263 264 264 266 269 268 267 266 266 266 nan nan nan nan nan nan nan nan nan nan nan nan nan nan nan nan nan nan nan nan nan nan nan nan nan nan nan nan nan nan nan nan nan nan nan nan nan nan nan nan nan nan nan nan nan
276 276 273 271 273 276 275 270 266 265 262 260 259 256 nan nan nan 255 254 253 254 253 253 254 253 254 255 257 257 258 259 261 262 264 264 265 265 265 266 268 269 269 nan nan nan nan nan nan nan nan nan nan nan nan nan nan nan nan nan nan nan nan nan nan nan nan nan nan nan nan nan nan nan nan nan nan nan nan nan nan nan nan nan nan nan nan nan
281 279 276 274 272 274 277 277 277 275 274 272 nan nan nan nan 258 nan nan 256 254 nan 254 254 254 255 255 256 258 257 257 258 259 261 261 261 262 263 265 269 269 269 nan nan nan nan nan nan nan nan nan nan nan nan nan nan nan nan nan nan nan nan nan nan nan nan nan nan nan nan nan nan nan nan nan nan nan nan nan nan nan nan nan nan nan nan nan
287 283 284 281 280 282 282 283 281 279 277 275 274 274 271 nan nan 265 nan nan 258 nan nan 254 254 255 255 256 257 256 256 257 257 257 258 258 259 259 262 265 266 266 266 nan 267 nan nan nan nan nan nan nan nan nan nan nan nan nan nan nan nan nan nan nan nan nan nan nan nan nan nan nan nan nan nan nan nan nan nan nan nan nan nan nan nan nan nan
291 289 288 288 288 289 290 286 284 283 282 280 278 275 275 274 nan nan 268 266 nan nan nan 257 256 255 255 256 256 256 255 255 256 257 259 260 260 259 260 262 263 263 264 265 266 267 nan nan nan nan nan nan nan nan nan nan nan nan nan nan nan nan nan nan nan nan nan nan nan nan nan nan nan nan nan nan nan nan nan nan nan nan nan nan nan nan nan
294 294 295 293 292 291 291 289 288 287 286 284 nan nan 279 277 nan nan nan nan nan nan nan nan nan 258 257 256 255 255 256 256 256 256 256 257 260 262 262 262 260 258 258 260 263 265 265 nan nan nan nan nan nan nan nan nan nan nan nan nan nan nan nan nan nan nan nan nan nan nan nan nan nan nan nan nan nan nan nan nan nan nan nan nan nan nan nan
295 295 297 296 294 nan 291 290 289 287 287 nan nan nan nan nan nan nan nan nan nan nan nan nan nan nan nan 257 256 256 255 256 255 255 255 256 257 258 259 259 260 260 259 259 261 262 263 264 nan nan nan nan nan nan nan nan nan nan nan nan nan nan nan nan nan nan nan nan nan nan nan nan nan nan nan nan nan nan nan nan nan nan nan nan nan nan nan
293 287 281 286 287 288 288 288 288 289 nan nan nan nan nan nan nan nan nan nan nan nan nan nan nan nan nan nan nan nan nan 255 255 254 254 254 255 256 256 257 257 258 258 259 261 260 261 262 nan nan nan nan nan nan nan nan nan nan nan nan nan nan nan nan nan nan nan nan nan nan nan nan nan nan nan nan nan nan nan nan nan nan nan nan nan nan nan
287 288 nan nan nan nan nan nan nan nan nan nan nan nan nan nan nan nan nan nan nan nan nan nan nan nan nan nan nan nan nan nan 253 251 251 251 252 254 254 255 257 257 256 258 259 259 nan nan nan nan nan nan nan nan nan nan nan nan nan nan nan nan nan nan nan nan nan nan nan nan nan nan nan nan nan nan nan nan nan nan nan nan nan nan nan nan nan
nan nan nan nan nan nan nan nan nan nan nan nan nan nan nan nan nan nan nan nan nan nan nan nan nan nan 264 261 260 nan nan nan nan 252 251 251 251 251 252 253 254 255 256 256 257 257 nan nan nan nan nan nan nan nan nan nan nan nan nan nan nan nan nan nan nan nan nan nan nan nan nan nan nan nan nan nan nan nan nan nan nan nan nan nan nan nan nan
nan nan nan nan nan nan nan nan nan nan nan nan nan nan nan nan nan nan nan nan nan nan nan nan nan nan nan 264 261 258 257 256 254 253 251 252 253 253 252 251 252 253 254 254 nan nan nan nan nan nan nan nan nan nan nan nan nan nan nan nan nan nan nan nan nan nan nan nan nan nan nan nan nan nan nan nan nan nan nan nan nan nan nan nan nan nan nan
nan nan nan nan nan nan nan nan nan nan nan nan nan nan nan nan nan nan nan nan nan nan nan nan nan nan nan nan 262 259 258 257 256 254 254 254 255 254 253 251 251 250 251 251 252 nan nan nan nan nan nan nan nan nan nan nan nan nan nan nan nan nan nan nan nan nan nan nan nan nan nan nan nan nan nan nan nan nan nan nan nan nan nan nan nan nan nan
nan nan nan nan nan nan nan nan nan nan nan nan nan nan nan nan nan nan nan nan nan nan nan nan nan nan nan 265 263 261 259 257 256 256 256 256 257 256 254 253 251 251 248 251 255 nan nan nan nan nan nan nan nan nan nan nan nan nan nan nan nan nan nan nan nan nan nan nan nan nan nan nan nan nan nan nan nan nan nan nan nan nan nan nan nan nan nan
nan nan nan nan nan nan nan nan nan nan nan nan nan nan nan nan nan nan nan nan nan nan nan nan nan nan nan 265 263 261 260 258 257 257 257 257 257 256 254 253 251 249 251 257 256 nan nan nan nan nan nan nan nan nan nan nan nan nan nan nan nan nan nan nan nan nan nan nan nan nan nan nan nan nan nan nan nan nan nan nan nan nan nan nan nan nan nan
nan nan nan nan nan nan nan nan nan nan nan nan nan nan nan nan nan nan nan nan nan nan nan nan nan nan nan nan 263 260 258 257 259 259 258 257 257 256 256 256 253 253 256 256 nan nan 260 nan nan nan nan nan nan nan nan nan nan nan nan nan nan nan nan nan nan nan nan nan nan nan nan nan nan nan nan nan nan nan nan nan nan nan nan nan nan nan nan
nan nan nan nan nan nan nan nan nan nan nan nan nan nan nan nan nan nan nan nan nan nan nan nan nan nan nan 263 260 257 256 256 258 258 259 258 257 256 257 258 258 257 258 258 257 258 nan nan nan nan nan nan nan nan nan nan nan nan nan nan nan nan nan nan nan nan nan nan nan nan nan nan nan nan nan nan nan nan nan nan nan nan nan nan nan nan nan
nan nan nan nan nan nan nan nan nan nan nan nan nan nan nan nan nan nan nan nan nan nan nan nan nan nan nan 267 nan nan 256 255 255 255 257 256 253 254 256 259 259 261 264 263 nan 257 nan nan nan nan nan nan nan nan nan nan nan nan nan nan nan nan nan nan nan nan nan nan nan nan nan nan nan nan nan nan nan nan nan nan nan nan nan nan nan nan nan
nan nan nan nan nan nan nan nan nan nan nan nan nan nan nan nan nan nan nan nan nan nan nan nan nan 281 274 266 261 258 257 254 252 252 254 252 247 nan 249 nan nan nan nan nan nan nan nan nan nan nan nan nan nan nan nan nan nan nan nan nan nan nan nan nan nan nan nan nan nan nan nan nan nan nan nan nan nan nan nan nan nan nan nan nan nan nan nan
nan nan nan nan nan nan nan nan nan nan nan nan nan nan nan nan nan nan nan nan nan 317 307 301 297 290 279 268 259 254 252 253 251 251 253 252 nan nan nan nan nan nan nan nan nan nan nan nan nan nan nan nan nan nan nan nan nan nan nan nan nan nan nan nan nan nan nan nan nan nan nan nan nan nan nan nan nan nan nan nan nan nan nan nan nan nan nan
nan nan nan nan nan nan nan nan nan nan nan nan nan nan nan nan nan nan nan nan nan nan nan 318 314 302 282 266 256 251 247 245 245 246 246 245 nan nan nan nan nan nan nan nan nan nan nan nan nan nan nan nan nan nan nan nan nan nan nan nan nan nan nan nan nan nan nan nan nan nan nan nan nan nan nan nan nan nan nan nan nan nan nan nan nan nan nan
nan nan nan nan nan nan nan nan nan nan nan nan nan nan nan nan nan nan nan nan nan nan nan nan nan nan 276 268 259 253 248 246 nan nan 246 nan nan nan nan nan nan nan nan nan nan nan nan nan nan nan nan nan nan nan nan nan nan nan nan nan nan nan nan nan nan nan nan nan nan nan nan nan nan nan nan nan nan nan nan nan nan nan nan nan nan nan nan
nan nan nan nan nan nan nan nan nan nan nan nan nan nan nan nan nan nan nan nan nan nan nan 322 319 300 265 258 261 253 245 nan nan nan nan nan nan nan nan nan nan nan nan nan nan nan nan nan nan nan nan nan nan nan nan nan nan nan nan nan nan nan nan nan nan nan nan nan nan nan nan nan nan nan nan nan nan nan nan nan nan nan nan nan nan nan nan
nan nan nan nan nan nan nan nan nan nan nan nan nan nan nan nan nan nan nan nan nan nan nan nan nan nan nan nan nan nan 236 nan nan nan nan nan nan nan nan nan nan nan nan nan nan nan nan nan nan nan nan nan nan nan nan nan nan nan nan nan nan nan nan nan nan nan nan nan nan nan nan nan nan nan nan nan nan nan nan nan nan nan nan nan nan nan nan
nan nan nan nan nan nan nan nan nan nan nan nan nan nan nan nan nan nan nan nan nan nan nan nan nan nan nan nan nan nan nan nan nan nan nan nan nan nan nan nan nan nan nan nan nan nan nan nan nan nan nan nan nan nan nan nan nan nan nan nan nan nan nan nan nan nan nan nan nan nan nan nan nan nan nan nan nan nan nan nan nan nan nan nan nan nan nan
nan nan nan nan nan nan nan nan nan nan nan nan nan nan nan nan nan nan nan nan nan nan nan nan nan nan nan nan nan nan nan nan nan nan nan nan nan nan nan nan nan nan nan nan nan nan nan nan nan nan nan nan nan nan nan nan nan nan nan nan nan nan nan nan nan nan nan nan nan nan nan nan nan nan nan nan nan nan nan nan nan nan nan nan nan nan nan
nan nan nan nan nan nan nan nan nan nan nan nan nan nan nan nan nan nan nan nan nan nan nan nan nan nan nan nan nan nan nan nan nan nan nan nan nan nan nan nan nan nan nan nan nan nan nan nan nan nan nan nan nan nan nan nan nan nan nan nan nan nan nan nan nan nan nan nan nan nan nan nan nan nan nan nan nan nan nan nan nan nan nan nan nan nan nan